Location: Cipriano
(19.7500°S, 43.9500°W)
Time: 05:56:49
(UTC+00:00)

Daily predictions for brighter satellites

Satellite Brightness Start Highest point End
(mag) Time Altitude Azimuth Time Altitude Azimuth Time Altitude Azimuth
CZ-3 R/B 4.3 05:05:06 10° W 06:07:27 68° SSW 06:20:21 10° ESE
Cosmos 1844 Rocket 3.8 06:38:32 40° E 06:38:32 40° E 06:43:26 10° NE
ATLAS 2A CENTAUR R/B 3.8 06:59:01 17° ENE 06:59:01 17° ENE 07:00:39 10° E
NOSS 0 Rocket 4.2 06:59:33 55° S 06:59:33 55° S 07:04:21 10° SSE
Hubble Space Telescope 3.1 07:01:52 18° NE 07:01:52 18° NE 07:04:14 10° ENE
SL-4 R/B 3.8 07:01:45 30° NE 07:02:21 31° NE 07:06:33 10° ESE
Atlas Centaur 2 3.9 07:07:12 14° NNE 07:07:12 14° NNE 07:08:09 10° NNE
Meteor 2-13 Rocket 4.2 07:05:00 10° S 07:11:08 83° W 07:17:10 10° N
Cosmos 1371 Rocket 4.3 07:08:57 24° S 07:12:10 65° ESE 07:17:26 10° NNE
Mugunghwa Rocket 3.8 07:15:26 68° W 07:16:17 82° NNW 07:22:50 10° ENE
Cosmos 1300 Rocket 4.3 07:18:21 43° SSE 07:18:21 43° SSE 07:21:22 10° S
ATLAS 3B CENTAUR R/B 3.4 07:15:46 43° SW 07:18:49 73° SSE 07:35:10 10° ENE
Meteor 1-12 Rocket 4.3 07:16:43 10° N 07:22:27 77° E 07:28:09 10° S
Cosmos 2237 Rocket 2.1 07:24:21 61° W 07:24:35 61° WSW 07:30:15 10° S
H-2A R/B 4.1 07:25:12 22° NNW 07:25:51 22° N 07:33:47 10° NE
Lacrosse 4 Rocket 3.1 07:31:06 21° N 07:31:06 21° N 07:32:37 10° N
Cosmos 2151 Rocket 3.4 07:26:41 26° N 07:29:10 88° W 07:33:41 10° S
Okean O Rocket 3.8 07:32:18 10° NE 07:36:01 26° ESE 07:39:46 10° SSE
H-10 deb 3.9 07:44:37 13° NNW 07:44:37 13° NNW 07:46:04 10° NNE
Cosmos 2266 Rocket 4.2 07:38:19 10° S 07:44:34 72° E 07:50:52 10° N
Cosmos 2056 Rocket 3.5 07:41:22 10° SSW 07:46:46 64° WNW 07:52:05 10° N
BREEZE-M (TANK) 4.2 07:48:06 21° NNW 07:48:06 21° NNW 07:52:12 10° NNE
Cosmos 2278 Rocket 4.0 07:43:09 10° S 07:48:10 31° ESE 07:53:07 10° NE
OAO 3 Rocket 3.7 07:47:31 36° WNW 07:48:18 39° NW 07:52:40 10° NNE
Cosmos 1048 Rocket 4.2 07:46:12 21° NW 07:49:33 47° WSW 07:54:42 10° S
PSLV R/B 3.7 07:49:32 10° N 07:53:22 59° WNW 07:57:12 10° SSW
OAO 2 Rocket 3.2 07:51:11 30° WSW 07:53:40 89° NNW 07:58:43 10° ENE
Cosmos 1844 4.0 07:50:11 20° SW 07:53:42 42° WNW 07:58:53 10° N
GPS 2-15 Rocket1 3.0 07:54:17 34° W 07:56:18 89° N 08:00:59 10° E
Cosmos 1842 3.7 07:57:04 30° WSW 07:58:07 36° W 08:01:42 10° NNW
Sakura Rocket 3.6 07:58:29 27° SW 07:59:38 33° SSW 08:02:58 10° SE
Iridium 82 4.4 07:56:14 10° S 07:59:45 60° W 08:03:17 10° N
ALOS 2.9 07:59:12 10° NNW 08:03:24 33° W 08:07:39 10° SW
DELTA 2 R/B (1) 4.3 08:02:21 24° W 08:04:49 34° NW 08:09:49 10° NNE
Cosmos 1655 Rocket 4.3 07:59:43 10° SSW 08:05:50 47° W 08:11:54 10° NNW
SL-16 Debris 3.9 08:04:35 27° WSW 08:06:17 80° NNW 08:14:02 10° ENE
Cosmos 972 Rocket 4.2 08:01:46 10° SSW 08:07:50 89° W 08:13:10 10° N
CZ-3A R/B 2.5 08:07:16 18° WSW 08:09:52 38° S 08:12:20 10° ESE
NOAA 6 4.0 08:06:32 10° N 08:11:40 82° WNW 08:16:54 10° SSW
Okean 1 Rocket 3.1 08:09:06 10° NNW 08:13:29 61° W 08:17:57 10° S
Cosmos 1689 Rocket 2.9 08:12:03 10° SSW 08:14:45 29° WSW 08:17:26 10° NW
Cosmos 1025 Rocket 3.1 08:15:11 10° SSW 08:19:31 57° W 08:23:50 10° N
H-2A R/B 3.4 08:16:25 10° NNE 08:20:16 62° ESE 08:24:09 10° S
Cosmos 1844 Rocket 4.1 08:20:21 15° W 08:21:39 16° W 08:24:53 10° NW
Cosmos 1452 Rocket 3.6 08:16:51 10° SSW 08:22:10 87° ESE 08:27:24 10° NNE
PAYLOAD B 4.4 08:16:58 10° N 08:22:21 52° WNW 08:27:49 10° SSW
Meteor 2-19 Rocket 4.5 08:17:18 10° SSW 08:23:13 56° W 08:29:08 10° N
CZ-3A R/B 4.4 08:17:38 14° WSW 08:25:21 76° S 09:17:57 10° E
Radarsat Rocket 4.0 08:22:52 10° N 08:28:45 79° WNW 08:35:13 10° SSW
NOSS 2-3 (D) 4.3 08:25:22 10° SSW 08:30:58 68° ESE 08:35:26 10° NE
GP-B 3.1 08:26:51 10° N 08:31:17 84° W 08:35:46 10° S
Cosmos 1733 4.2 08:28:40 10° N 08:32:25 51° E 08:36:13 10° SSE
USA 229 DEB 3.8 08:28:36 10° SW 08:34:54 50° WNW 08:41:02 10° N
USA 229 3.8 08:28:43 10° SW 08:35:01 50° WNW 08:41:10 10° N
USA 215 3.6 08:30:48 10° NE 08:37:16 70° SE 08:43:51 10° SSW
Cosmos 1805 3.2 08:34:55 10° NNW 08:38:46 67° W 08:42:41 10° S
Cosmos 1242 Rocket 2.5 08:36:10 10° SSW 08:39:44 57° W 08:43:12 10° N
Cosmos 1536 Rocket 4.3 08:37:29 10° SSW 08:41:30 32° W 08:45:28 10° NNW
SL-4 R/B 3.5 08:38:11 10° W 08:42:01 25° SW 08:46:00 10° S
Hubble Space Telescope 0.8 08:38:07 10° WNW 08:42:16 87° NNE 08:46:28 10° ESE
Cosmos 1707 3.5 08:39:41 10° SSW 08:43:07 31° W 08:46:32 10° NNW
Cosmos 1553 Rocket 4.1 08:37:32 10° N 08:43:55 72° W 08:50:21 10° S
NOSS 3-1 (A) 3.1 08:38:44 10° SSW 08:44:15 65° WNW 08:49:21 10° NNE
SKYMED 2 4.0 08:40:34 10° SSE 08:44:56 70° E 08:49:15 10° N
SL-16 R/B 2.9 08:40:33 10° NW 08:45:32 32° WSW 08:50:34 10° S
